SXN39 EGKB-EGTR

Flight info

Callsign SXN39
Flight time 0h 10m
Altitude 2000
Route LONDON BRIDGE ARSENAL
Aircraft A139/L-VGD/C

Departure

Time 2026-04-30 21:24
Airport London Biggin Hill Airport (EGKB)

Arrival

Time 2026-04-30 21:34
Airport Elstree Airfield (EGTR)
Time Latitude Longitude Altitude Speed Heading
2026-04-30 21:17 51.33273 0.03053 561 ft 0 kts 204°
2026-04-30 21:22 51.33257 0.03091 561 ft 1 kts 94°
2026-04-30 21:23 51.33258 0.03093 567 ft 1 kts 97°
2026-04-30 21:23 51.33247 0.03234 601 ft 18 kts 92°
2026-04-30 21:23 51.33333 0.03423 674 ft 41 kts 30°
2026-04-30 21:24 51.33767 0.03768 939 ft 87 kts 26°
2026-04-30 21:24 51.34371 0.04256 1238 ft 106 kts 26°
2026-04-30 21:24 51.35108 0.04699 1575 ft 122 kts 15°
2026-04-30 21:24 51.35981 0.04468 1914 ft 138 kts 339°
2026-04-30 21:25 51.37829 0.02955 2065 ft 154 kts 337°
2026-04-30 21:25 51.38782 0.02174 2057 ft 154 kts 336°
2026-04-30 21:25 51.39738 0.01385 2035 ft 154 kts 335°
2026-04-30 21:26 51.41556 -0.00463 1974 ft 156 kts 329°
2026-04-30 21:26 51.42475 -0.01380 1996 ft 155 kts 332°
2026-04-30 21:27 51.44342 -0.03175 2007 ft 157 kts 332°
2026-04-30 21:27 51.45265 -0.04058 2014 ft 156 kts 332°
2026-04-30 21:27 51.46209 -0.04960 2006 ft 156 kts 332°
2026-04-30 21:28 51.48113 -0.06619 2008 ft 154 kts 341°
2026-04-30 21:28 51.49123 -0.07302 1960 ft 159 kts 342°
2026-04-30 21:28 51.51167 -0.08667 2009 ft 160 kts 341°
2026-04-30 21:29 51.52207 -0.09364 2010 ft 161 kts 341°
2026-04-30 21:29 51.55303 -0.11442 2008 ft 162 kts 341°
2026-04-30 21:30 51.57192 -0.13491 2008 ft 167 kts 319°
2026-04-30 21:31 51.59767 -0.17312 2001 ft 168 kts 318°
2026-04-30 21:31 51.61326 -0.20051 2021 ft 167 kts 288°
2026-04-30 21:32 51.61618 -0.23579 2076 ft 152 kts 267°
2026-04-30 21:32 51.61705 -0.25257 2027 ft 149 kts 266°
2026-04-30 21:32 51.61868 -0.26922 1966 ft 154 kts 284°
2026-04-30 21:32 51.62242 -0.28501 1971 ft 151 kts 287°
2026-04-30 21:33 51.62591 -0.30016 1665 ft 137 kts 289°
2026-04-30 21:33 51.63491 -0.32274 1225 ft 104 kts 319°
2026-04-30 21:33 51.63986 -0.33061 1157 ft 93 kts 343°
2026-04-30 21:34 51.64478 -0.33038 1082 ft 66 kts 18°
2026-04-30 21:34 51.64920 -0.32821 944 ft 38 kts 342°
2026-04-30 21:34 51.65107 -0.32937 810 ft 50 kts 334°
2026-04-30 21:35 51.65455 -0.33005 540 ft 48 kts 23°
2026-04-30 21:35 51.65626 -0.32761 407 ft 20 kts 45°
2026-04-30 21:35 51.65640 -0.32727 393 ft 17 kts 44°
2026-04-30 21:35 51.65679 -0.32632 339 ft 7 kts 43°
2026-04-30 21:36 51.65688 -0.32608 311 ft 1 kts 351°
2026-04-30 21:36 51.65689 -0.32608 308 ft 0 kts 351°